"2009-09-14 00:00:00",1238688,6.464,210.2,1.04,0.077,19.3,107.9043,19.51,20.47,49.69,0,110.7,13.27,20.33,172.2
"2009-09-14 00:00:30",1238689,6.395,207.6,0.487,0.048,19.14,107.9048,19.52,20.47,49.69,0,110.7,13.27,20.34,169.6
"2009-09-14 00:01:00",1238690,6.291,208.1,1.029,0.08,19.31,107.9054,19.52,20.48,49.7,0,110.7,13.27,20.34,170.1
"2009-09-14 00:01:30",1238691,6.184,207,1.025,0.082,19.34,107.9054,19.52,20.49,49.71,0,110.6,13.27,20.34,169.0
"2009-09-14 00:02:00",1238692,6.415,205.3,0.703,0.09,19.17,107.9054,19.52,20.49,49.68,0,110.7,13.27,20.34,167.3
"2009-09-14 00:02:30",1238693,6.363,204.2,1.261,0.067,19.17,107.9054,19.52,20.49,49.68,0,110.6,13.27,20.34,166.2
"2009-09-14 00:03:00",1238694,6.037,201.8,0.506,0.118,19.32,107.9054,19.52,20.49,49.64,0,110.7,13.27,20.34,163.8
"2009-09-14 00:03:30",1238695,6.065,201.9,0.44,0.085,19.28,107.9054,19.52,20.49,49.67,0,110.7,13.27,20.34,163.9
"2009-09-14 00:04:00",1238696,6.034,201.6,0.492,0.047,19.26,107.9054,19.52,20.49,49.76,0,110.7,13.27,20.34,163.6
"2009-09-14 00:04:30",1238697,6.253,203.6,0.809,0.068,19.21,107.9054,19.52,20.51,49.81,0,110.7,13.27,20.34,165.6
"2009-09-14 00:05:00",1238698,6.159,203.2,0.744,0.092,19.25,107.9054,19.52,20.51,49.86,0,110.7,13.27,20.34,165.2
"2009-09-14 00:05:30",1238699,5.94,202.1,0.881,0.159,19.19,107.9054,19.52,20.51,49.81,0,110.7,13.27,20.34,164.1
"2009-09-14 00:06:00",1238700,5.826,200.9,0.896,0.079,19.14,107.9054,19.52,20.5,49.87,0,110.7,13.27,20.34,162.9
"2009-09-14 00:06:30",1238701,5.718,200,0.875,0.09,19.09,107.9054,19.52,20.51,49.82,0,110.7,13.27,20.34,162.0
"2009-09-14 00:07:00",1238702,5.981,201.7,0.989,0.117,19.14,107.9054,19.52,20.5,49.84,0,110.7,13.27,20.34,163.7
"2009-09-14 00:07:30",1238703,5.977,201.4,0.558,0.055,19.14,107.9054,19.52,20.51,49.91,0,110.7,13.27,20.34,163.4
"2009-09-14 00:08:00",1238704,5.885,200.8,0.781,0.059,19.06,107.9054,19.52,20.5,49.96,0,110.7,13.27,20.34,162.8
"2009-09-14 00:08:30",1238705,5.986,199.6,0.859,0.041,19.04,107.9054,19.52,20.51,49.97,0,110.7,13.27,20.34,161.6
"2009-09-14 00:09:00",1238706,5.683,199.4,1.072,0.133,19.06,107.9054,19.52,20.5,49.95,0,110.7,13.27,20.34,161.4
"2009-09-14 00:09:30",1238707,5.713,197.7,1.144,0.121,19.08,107.9054,19.52,20.49,49.97,0,110.7,13.27,20.34,159.7
"2009-09-14 00:10:00",1238708,5.692,199.2,0.967,0.082,19.07,107.9054,19.52,20.49,50.13,0,110.7,13.27,20.34,161.2
"2009-09-14 00:10:30",1238709,5.631,199.9,1.123,0.126,19.06,107.9048,19.52,20.49,50.06,0,110.7,13.27,20.34,161.9
"2009-09-14 00:11:00",1238710,5.67,201,0.55,0.063,19.11,107.9046,19.51,20.5,50.05,0,110.7,13.27,20.34,163.0
"2009-09-14 00:11:30",1238711,5.562,202.9,1.239,0.058,19.04,107.9034,19.51,20.48,49.99,0,110.7,13.27,20.33,164.9
"2009-09-14 00:12:00",1238712,5.589,204.5,0.766,0.071,19.02,107.8992,19.5,20.48,49.96,0,110.7,13.27,20.32,166.5
"2009-09-14 00:12:30",1238713,5.571,204.4,0.886,0.086,18.96,107.897,19.5,20.47,50,0,110.7,13.27,20.32,166.4
"2009-09-14 00:13:00",1238714,5.641,204.8,0.626,0.05,19,107.8888,19.47,20.46,50.05,0,110.7,13.27,20.29,166.8
"2009-09-14 00:13:30",1238715,5.757,204.8,1.407,0.1,19.08,107.8801,19.45,20.46,49.96,0,110.7,13.27,20.27,166.8
"2009-09-14 00:14:00",1238716,5.721,203.3,0.89,0.058,19.07,107.8742,19.44,20.48,50.24,0,110.7,13.27,20.26,165.3
"2009-09-14 00:14:30",1238717,6.014,200.4,2.248,0.099,18.88,107.8719,19.43,20.46,50.34,0,110.7,13.27,20.25,162.4
"2009-09-14 00:15:00",1238718,6.02,201.7,1.068,0.04,18.85,107.8716,19.43,20.44,50.84,0,110.7,13.27,20.25,163.7
"2009-09-14 00:15:30",1238719,6.028,202.8,0.634,0.065,18.87,107.8716,19.43,20.45,51.13,0,110.7,13.26,20.25,164.8
"2009-09-14 00:16:00",1238720,5.765,203.4,0.844,0.131,18.99,107.8716,19.43,20.43,51.31,0,110.7,13.27,20.25,165.4
"2009-09-14 00:16:30",1238721,5.516,205,0.78,0.081,18.75,107.8716,19.43,20.44,50.89,0,110.7,13.27,20.25,167.0
"2009-09-14 00:17:00",1238722,5.395,203.7,0.696,0.069,18.75,107.8716,19.43,20.42,50.71,0,110.7,13.27,20.25,165.7
"2009-09-14 00:17:30",1238723,5.353,203.2,0.741,0.107,18.9,107.8716,19.43,20.41,51.03,0,110.7,13.27,20.25,165.2
"2009-09-14 00:18:00",1238724,5.143,201.5,0.738,0.069,19.07,107.8716,19.43,20.42,51.21,0,110.7,13.27,20.25,163.5
"2009-09-14 00:18:30",1238725,5.12,201.5,0.817,0.049,18.96,107.8685,19.42,20.4,51.02,0,110.7,13.27,20.24,163.5
"2009-09-14 00:19:00",1238726,5.07,201.9,1.022,0.08,18.87,107.8618,19.41,20.4,51.05,0,110.7,13.27,20.22,163.9
"2009-09-14 00:19:30",1238727,4.802,204.1,1.603,0.115,18.73,107.8471,19.37,20.4,50.99,0,110.7,13.27,20.19,166.1
"2009-09-14 00:20:00",1238728,4.449,203,1.004,0.151,18.63,107.8378,19.34,20.39,50.58,0,110.7,13.27,20.16,165.0
"2009-09-14 00:20:30",1238729,4.126,205.2,3.375,0.18,18.48,107.8373,19.34,20.36,50.15,0,110.7,13.27,20.16,167.2
"2009-09-14 00:21:00",1238730,3.582,210.4,8.09,0.434,18.23,107.8091,19.27,20.34,49.88,0,110.7,13.27,20.09,172.4
"2009-09-14 00:21:30",1238731,3.259,240.1,10.9,0.216,17.52,107.8041,19.26,20.3,49.82,0,110.7,13.27,20.08,202.1
"2009-09-14 00:22:00",1238732,3.344,240.2,3.401,0.155,17.27,107.7962,19.24,20.28,49.31,0,110.7,13.27,20.06,202.2
"2009-09-14 00:22:30",1238733,3.18,234.8,1.118,0.252,17.27,107.7742,19.18,20.24,49.46,0,110.7,13.27,20.00,196.8
"2009-09-14 00:23:00",1238734,3.341,238.9,0.664,0.115,17.2,107.7703,19.17,20.21,49.45,0,110.7,13.27,19.99,200.9
"2009-09-14 00:23:30",1238735,3.049,239,1.142,0.121,17.16,107.7703,19.17,20.18,49.29,0,110.7,13.27,19.99,201.0
"2009-09-14 00:24:00",1238736,3.263,239.5,1.236,0.052,17.2,107.7649,19.16,20.16,49.2,0,110.7,13.27,19.98,201.5
"2009-09-14 00:24:30",1238737,3.379,239.2,1.177,0.148,17.42,107.7413,19.1,20.14,49.05,0,110.7,13.27,19.91,201.2
"2009-09-14 00:25:00",1238738,3.703,237.6,2.913,0.169,17.73,107.7365,19.08,20.12,49.45,0,110.7,13.27,19.90,199.6
"2009-09-14 00:25:30",1238739,3.862,238.6,2.978,0.144,17.71,107.7235,19.05,20.11,49.76,0,110.6,13.27,19.87,200.6
"2009-09-14 00:26:00",1238740,3.882,235.1,4.43,0.213,17.59,107.7027,19,20.07,49.77,0,110.6,13.27,19.82,197.1
"2009-09-14 00:26:30",1238741,3.809,234.9,2.983,0.207,17.71,107.6847,18.95,20.04,50.04,0,110.6,13.27,19.77,196.9
"2009-09-14 00:27:00",1238742,4.425,235.3,2.38,0.245,17.59,107.6638,18.9,20,50.59,0,110.6,13.27,19.72,197.3
"2009-09-14 00:27:30",1238743,4.442,233.5,3.5,0.142,17.42,107.6351,18.82,19.97,50.94,0,110.6,13.28,19.64,195.5
"2009-09-14 00:28:00",1238744,4.256,230.2,2.151,0.089,17.48,107.6075,18.75,19.91,51.58,0,110.6,13.28,19.57,192.2
"2009-09-14 00:28:30",1238745,4.161,222,3.803,0.179,18.09,107.5791,18.68,19.86,51.97,0,110.6,13.28,19.50,184.0
"2009-09-14 00:29:00",1238746,4.38,216.9,3.668,0.194,18.27,107.5574,18.62,19.81,52.07,0,110.6,13.28,19.44,178.9
"2009-09-14 00:29:30",1238747,4.417,212.7,1.747,0.107,18.23,107.5335,18.56,19.75,52.34,0,110.6,13.28,19.38,174.7
"2009-09-14 00:30:00",1238748,4.583,209.2,1.425,0.119,18.39,107.5087,18.5,19.7,52.66,0,110.6,13.28,19.32,171.2
"2009-09-14 00:30:30",1238749,4.411,208.7,1.38,0.115,18.3,107.4989,18.47,19.64,53.02,0,110.6,13.27,19.29,170.7
"2009-09-14 00:31:00",1238750,4.315,204.4,1.784,0.044,18.38,107.4738,18.41,19.6,53.38,0,110.6,13.27,19.23,166.4
"2009-09-14 00:31:30",1238751,4.272,201.9,0.167,0.043,18.7,107.4662,18.39,19.56,54.07,0,110.6,13.27,19.21,163.9
"2009-09-14 00:32:00",1238752,4.193,202,0.497,0.036,18.54,107.4533,18.36,19.51,54.52,0,110.6,13.27,19.17,164.0
"2009-09-14 00:32:30",1238753,4.207,201.3,0.405,0.052,18.43,107.4333,18.31,19.46,54.71,0,110.6,13.27,19.12,163.3
"2009-09-14 00:33:00",1238754,4.048,201.7,0.856,0.037,18.38,107.4324,18.3,19.45,54.92,0,110.6,13.27,19.12,163.7
"2009-09-14 00:33:30",1238755,4.082,202,0.668,0.048,18.63,107.4305,18.3,19.43,55.11,0,110.6,13.27,19.11,164.0
"2009-09-14 00:34:00",1238756,3.681,205.8,4.623,0.272,18.16,107.4144,18.26,19.4,55.22,0,110.6,13.27,19.07,167.8
"2009-09-14 00:34:30",1238757,3.59,205.7,0.663,0.074,18.01,107.3987,18.22,19.36,55.03,0,110.6,13.27,19.03,167.7
"2009-09-14 00:35:00",1238758,3.291,206.3,1.165,0.142,18.3,107.3981,18.22,19.33,55.19,0,110.6,13.27,19.03,168.3
"2009-09-14 00:35:30",1238759,2.73,211.6,1.585,0.119,18.11,107.3764,18.16,19.29,54.94,0,110.6,13.27,18.98,173.6
"2009-09-14 00:36:00",1238760,2.476,225,7.591,0.253,17.58,107.3598,18.12,19.25,55.35,0,110.6,13.28,18.93,187.0
"2009-09-14 00:36:30",1238761,2.598,239.1,4.987,0.35,17.43,107.3181,18.01,19.18,55.74,0,110.6,13.28,18.83,201.1
"2009-09-14 00:37:00",1238762,2.09,237.4,10.36,0.417,17.1,107.2891,17.94,19.1,55.96,0,110.6,13.28,18.75,199.4
"2009-09-14 00:37:30",1238763,1.954,261.4,12.71,0.34,17.07,107.2635,17.87,19.03,56.19,0,110.6,13.28,18.69,223.4
"2009-09-14 00:38:00",1238764,2.015,286.3,9.29,0.223,16.9,107.2635,17.87,18.99,56.34,0,110.6,13.28,18.69,248.3
"2009-09-14 00:38:30",1238765,1.529,283.9,7.716,0.302,17.15,107.2635,17.87,18.95,56.45,0,110.6,13.28,18.69,245.9
"2009-09-14 00:39:00",1238766,1.869,278.1,7.484,0.279,17.23,107.2635,17.87,18.93,56.5,0,110.6,13.28,18.69,240.1
"2009-09-14 00:39:30",1238767,2.036,271.6,16.97,0.248,17.32,107.2607,17.86,18.93,56.51,0,110.6,13.28,18.68,233.6
"2009-09-14 00:40:00",1238768,2.305,236.6,3.41,0.191,17.69,107.2421,17.82,18.91,56.82,0,110.6,13.28,18.63,198.6
"2009-09-14 00:40:30",1238769,2.185,230,3.596,0.135,17.69,107.2297,17.78,18.89,57.1,0,110.6,13.28,18.60,192.0
"2009-09-14 00:41:00",1238770,2.323,220.2,3.716,0.189,18.05,107.2297,17.78,18.87,57.23,0,110.6,13.29,18.60,182.2
"2009-09-14 00:41:30",1238771,2.844,210,2.647,0.163,18.15,107.2278,17.78,18.86,57.34,0,110.6,13.29,18.59,172.0
"2009-09-14 00:42:00",1238772,3.226,210.4,1.331,0.159,18.23,107.2033,17.72,18.85,57.47,0,110.6,13.29,18.53,172.4
"2009-09-14 00:42:30",1238773,3.781,210.1,2.906,0.328,18.41,107.1972,17.7,18.82,57.76,0,110.6,13.29,18.51,172.1
"2009-09-14 00:43:00",1238774,4.291,208.3,2.974,0.148,18.47,107.1975,17.7,18.8,58.42,0,110.6,13.29,18.52,170.3
"2009-09-14 00:43:30",1238775,4.201,208.4,3.969,0.217,18.27,107.1975,17.7,18.79,58.51,0,110.6,13.29,18.52,170.4
"2009-09-14 00:44:00",1238776,4.48,208.6,1.724,0.167,18.28,107.1981,17.7,18.77,58.55,0,110.6,13.29,18.52,170.6
"2009-09-14 00:44:30",1238777,4.916,206.5,0.487,0.098,18.69,107.1893,17.68,18.78,58.82,0,110.6,13.29,18.49,168.5
"2009-09-14 00:45:00",1238778,4.851,206.8,0.532,0.037,19.02,107.1811,17.66,18.75,59.12,0,110.6,13.29,18.47,168.8
"2009-09-14 00:45:30",1238779,4.96,206.8,0.529,0.064,19.04,107.1697,17.63,18.73,59.18,0,110.6,13.29,18.44,168.8
"2009-09-14 00:46:00",1238780,5.111,206,0.812,0.045,18.73,107.1696,17.63,18.74,59.27,0,110.6,13.28,18.44,168.0
"2009-09-14 00:46:30",1238781,5.246,204.2,0.508,0.032,18.6,107.1711,17.63,18.73,59.33,0,110.6,13.28,18.45,166.2
"2009-09-14 00:47:00",1238782,5.191,204.1,1.197,0.056,18.57,107.1724,17.64,18.72,59.4,0,110.6,13.28,18.45,166.1
"2009-09-14 00:47:30",1238783,4.952,205,1.653,0.139,18.03,107.1723,17.64,18.71,59.37,0,110.6,13.28,18.45,167.0
"2009-09-14 00:48:00",1238784,4.478,210.6,3.766,0.304,17.83,107.1793,17.65,18.72,59.19,0,110.6,13.28,18.47,172.6
"2009-09-14 00:48:30",1238785,4.494,210.1,6.969,0.723,17.99,107.1846,17.67,18.72,59.11,0,110.6,13.28,18.48,172.1
"2009-09-14 00:49:00",1238786,4.856,202.2,4.47,0.317,18.35,107.191,17.68,18.71,59.29,0,110.6,13.28,18.50,164.2
"2009-09-14 00:49:30",1238787,4.278,210.4,5.517,0.282,17.79,107.1937,17.69,18.72,59.3,0,110.6,13.28,18.51,172.4
"2009-09-14 00:50:00",1238788,4.456,202.5,3.635,0.386,17.87,107.199,17.71,18.72,59.01,0,110.6,13.28,18.52,164.5
"2009-09-14 00:50:30",1238789,4.627,201.2,2.541,0.203,17.92,107.202,17.71,18.73,58.99,0,110.6,13.28,18.53,163.2
"2009-09-14 00:51:00",1238790,4.905,200.2,1.368,0.139,18.07,107.2061,17.72,18.72,59.09,0,110.6,13.28,18.54,162.2
"2009-09-14 00:51:30",1238791,4.906,198.3,1.877,0.198,18.02,107.2069,17.73,18.72,59.21,0,110.6,13.28,18.54,160.3
"2009-09-14 00:52:00",1238792,5.367,202.3,3.488,0.264,17.95,107.2061,17.72,18.72,59.18,0,110.6,13.28,18.54,164.3
"2009-09-14 00:52:30",1238793,5.154,207.7,1.705,0.271,17.9,107.212,17.74,18.74,59.15,0,110.6,13.28,18.55,169.7
"2009-09-14 00:53:00",1238794,4.917,208.4,2.488,0.196,17.77,107.2115,17.74,18.72,59.15,0,110.6,13.28,18.55,170.4
"2009-09-14 00:53:30",1238795,4.496,204.4,3.39,0.219,17.82,107.2105,17.73,18.73,59.15,0,110.6,13.28,18.55,166.4
"2009-09-14 00:54:00",1238796,5.239,200.3,2.332,0.462,17.82,107.206,17.72,18.73,59.2,0,110.6,13.28,18.54,162.3
"2009-09-14 00:54:30",1238797,4.744,198.5,6.373,0.265,18.02,107.1993,17.71,18.72,59.22,0,110.6,13.28,18.52,160.5
"2009-09-14 00:55:00",1238798,5.543,188.9,2.729,0.257,18.27,107.1944,17.69,18.72,59.37,0,110.6,13.28,18.51,150.9
"2009-09-14 00:55:30",1238799,5.661,188,2.848,0.454,18.36,107.1902,17.68,18.72,59.65,0,110.6,13.28,18.50,150.0
"2009-09-14 00:56:00",1238800,5.89,185.2,1.097,0.158,18.41,107.1911,17.69,18.7,60.14,0,110.6,13.29,18.50,147.2
"2009-09-14 00:56:30",1238801,5.486,185.9,0.613,0.097,18.51,107.1938,17.69,18.7,60.36,0,110.6,13.29,18.51,147.9
"2009-09-14 00:57:00",1238802,5.243,184,0.374,0.131,18.68,107.1966,17.7,18.69,60.43,0,110.6,13.29,18.51,146.0
"2009-09-14 00:57:30",1238803,4.834,183.8,0.52,0.152,18.58,107.1957,17.7,18.69,60.39,0,110.6,13.29,18.51,145.8
"2009-09-14 00:58:00",1238804,4.566,183.4,0.679,0.063,18.65,107.1966,17.7,18.68,60.27,0,110.6,13.29,18.51,145.4
"2009-09-14 00:58:30",1238805,4.349,185,1.562,0.166,18.66,107.1975,17.7,18.67,60.16,0,110.6,13.29,18.52,147.0
"2009-09-14 00:59:00",1238806,4.092,187,2.256,0.096,18.56,107.1984,17.7,18.67,60.1,0,110.6,13.29,18.52,149.0
"2009-09-14 00:59:30",1238807,4.111,189,1.203,0.057,18.52,107.1984,17.7,18.67,60.08,0,110.6,13.29,18.52,151.0
"2009-09-14 01:00:00",1238808,4.097,189.1,1.155,0.102,18.5,107.1978,17.7,18.68,60.08,0,110.6,13.29,18.52,151.1
"2009-09-14 01:00:30",1238809,4.385,191.2,2.413,0.107,18.53,107.1978,17.7,18.66,60.09,0,110.6,13.29,18.52,153.2
"2009-09-14 01:01:00",1238810,4.532,191,1.413,0.104,18.59,107.1984,17.7,18.67,60.12,0,110.6,13.29,18.52,153.0
"2009-09-14 01:01:30",1238811,4.84,190.8,0.956,0.126,18.41,107.1984,17.7,18.66,60.15,0,110.6,13.29,18.52,152.8
"2009-09-14 01:02:00",1238812,4.929,190.6,0.548,0.064,18.45,107.1984,17.7,18.68,60.22,0,110.6,13.29,18.52,152.6
"2009-09-14 01:02:30",1238813,5.021,192,0.779,0.082,18.61,107.1984,17.7,18.68,60.21,0,110.6,13.29,18.52,154.0
"2009-09-14 01:03:00",1238814,5.183,192.5,0.659,0.044,18.48,107.1984,17.7,18.67,60.15,0,110.6,13.29,18.52,154.5
"2009-09-14 01:03:30",1238815,5.182,192.1,0.458,0.014,18.5,107.1984,17.7,18.68,60.12,0,110.6,13.29,18.52,154.1
"2009-09-14 01:04:00",1238816,5.253,193.2,1.003,0.072,18.34,107.1984,17.7,18.69,60.2,0,110.6,13.29,18.52,155.2
"2009-09-14 01:04:30",1238817,5.428,194,0.612,0.04,18.29,107.1995,17.71,18.71,60.21,0,110.6,13.29,18.52,156.0
"2009-09-14 01:05:00",1238818,5.566,193.8,0.6,0.108,18.48,107.2065,17.72,18.7,60.23,0,110.6,13.29,18.54,155.8
"2009-09-14 01:05:30",1238819,5.672,193.9,0.448,0.038,18.59,107.2153,17.75,18.71,60.3,0,110.6,13.29,18.56,155.9
"2009-09-14 01:06:00",1238820,5.716,193.5,0.502,0.05,18.62,107.224,17.77,18.71,60.3,0,110.6,13.29,18.58,155.5
"2009-09-14 01:06:30",1238821,5.905,194.7,0.291,0.076,18.24,107.231,17.79,18.72,60.21,0,110.6,13.29,18.60,156.7
"2009-09-14 01:07:00",1238822,5.78,195.7,1.159,0.12,18.4,107.2322,17.79,18.74,60.06,0,110.6,13.29,18.60,157.7
"2009-09-14 01:07:30",1238823,5.784,194.9,0.883,0.133,18.4,107.2322,17.79,18.72,60.11,0,110.6,13.29,18.60,156.9
"2009-09-14 01:08:00",1238824,5.659,196.1,1.168,0.048,18.51,107.2322,17.79,18.75,60.19,0,110.6,13.29,18.60,158.1
"2009-09-14 01:08:30",1238825,5.689,198.5,1.651,0.072,18.64,107.2322,17.79,18.76,60.11,0,110.6,13.29,18.60,160.5
"2009-09-14 01:09:00",1238826,5.662,201.9,0.285,0.039,18.79,107.2322,17.79,18.76,60.08,0,110.6,13.29,18.60,163.9
"2009-09-14 01:09:30",1238827,5.635,202.4,0.539,0.04,18.7,107.2322,17.79,18.75,60.07,0,110.6,13.29,18.60,164.4
"2009-09-14 01:10:00",1238828,5.869,201.9,0.62,0.106,18.39,107.2322,17.79,18.78,60.04,0,110.6,13.29,18.60,163.9
"2009-09-14 01:10:30",1238829,5.939,201.6,0.345,0.022,18.17,107.2322,17.79,18.77,60,0,110.6,13.29,18.60,163.6
"2009-09-14 01:11:00",1238830,6.001,201.3,0.403,0.046,18.12,107.2324,17.79,18.78,59.99,0,110.6,13.29,18.61,163.3
"2009-09-14 01:11:30",1238831,6.233,200.7,0.525,0.063,18.36,107.2353,17.8,18.79,60.1,0,110.6,13.29,18.61,162.7
"2009-09-14 01:12:00",1238832,6.19,200.3,0.254,0.02,18.34,107.2381,17.81,18.79,60.15,0,110.6,13.29,18.62,162.3
"2009-09-14 01:12:30",1238833,6.115,201,0.423,0.082,18.29,107.2415,17.81,18.79,60.14,0,110.6,13.29,18.63,163.0
"2009-09-14 01:13:00",1238834,5.834,201.3,0.329,0.056,18.53,107.2451,17.82,18.8,60.06,0,110.6,13.29,18.64,163.3
"2009-09-14 01:13:30",1238835,5.651,201.6,1.188,0.103,18.7,107.2553,17.85,18.8,59.97,0,110.6,13.29,18.66,163.6
"2009-09-14 01:14:00",1238836,5.386,202.8,0.811,0.044,18.64,107.2623,17.87,18.8,59.95,0,110.6,13.29,18.68,164.8
"2009-09-14 01:14:30",1238837,5.512,204.2,0.699,0.061,18.68,107.2657,17.88,18.81,59.97,0,110.6,13.29,18.69,166.2
"2009-09-14 01:15:00",1238838,5.613,205.7,0.656,0.036,18.56,107.266,17.88,18.81,59.96,0,110.6,13.29,18.69,167.7
"2009-09-14 01:15:30",1238839,5.607,207.4,0.666,0.036,18.76,107.266,17.88,18.81,59.91,0,110.6,13.29,18.69,169.4
"2009-09-14 01:16:00",1238840,5.568,208.7,0.473,0.04,18.76,107.266,17.88,18.83,59.76,0,110.6,13.29,18.69,170.7
"2009-09-14 01:16:30",1238841,5.381,209,0.195,0.081,18.53,107.266,17.88,18.83,59.58,0,110.6,13.29,18.69,171.0
"2009-09-14 01:17:00",1238842,5.494,206.9,1.348,0.145,18.54,107.266,17.88,18.85,59.4,0,110.6,13.29,18.69,168.9
"2009-09-14 01:17:30",1238843,5.755,202.2,0.76,0.076,18.6,107.266,17.88,18.86,59.67,0,110.6,13.29,18.69,164.2
"2009-09-14 01:18:00",1238844,5.909,201.9,0.259,0.043,18.27,107.2662,17.88,18.86,59.9,0,110.6,13.29,18.69,163.9
"2009-09-14 01:18:30",1238845,6.01,202.7,0.539,0.044,18.08,107.2716,17.89,18.86,59.96,0,110.6,13.29,18.71,164.7
"2009-09-14 01:19:00",1238846,5.964,202,2.462,0.061,18.24,107.2865,17.93,18.88,59.88,0,110.6,13.29,18.74,164.0
"2009-09-14 01:19:30",1238847,6.003,205.7,2.657,0.112,18.48,107.2905,17.94,18.88,59.84,0,110.6,13.29,18.75,167.7
"2009-09-14 01:20:00",1238848,5.674,212.6,0.643,0.117,18.93,107.2927,17.95,18.89,59.36,0,110.6,13.29,18.76,174.6
"2009-09-14 01:20:30",1238849,5.299,214.4,0.669,0.075,19.02,107.2981,17.96,18.89,59.17,0,110.6,13.29,18.77,176.4
"2009-09-14 01:21:00",1238850,5.615,213.5,0.673,0.152,18.67,107.2998,17.96,18.91,59.06,0,110.6,13.29,18.78,175.5
"2009-09-14 01:21:30",1238851,6.141,213.7,0.606,0.096,18.61,107.2998,17.96,18.93,59.07,0,110.6,13.29,18.78,175.7
"2009-09-14 01:22:00",1238852,6.386,218.9,3.957,0.611,18.79,107.2998,17.96,18.94,58.93,0,110.6,13.29,18.78,180.9
"2009-09-14 01:22:30",1238853,6.665,209.6,10.66,0.661,18.78,107.3,17.96,18.94,58.64,0,110.6,13.29,18.78,171.6
"2009-09-14 01:23:00",1238854,6.512,208,2.134,0.292,18.36,107.3181,18.01,18.95,59.12,0,110.6,13.29,18.83,170.0
"2009-09-14 01:23:30",1238855,6.101,208.7,1.187,0.056,18.46,107.3327,18.05,18.96,59.26,0,110.6,13.29,18.86,170.7
"2009-09-14 01:24:00",1238856,6.034,210.7,2.124,0.114,18.58,107.3335,18.05,18.97,59.25,0,110.6,13.29,18.87,172.7
"2009-09-14 01:24:30",1238857,4.784,216.7,1.138,0.485,18.91,107.3335,18.05,18.99,58.76,0,110.6,13.29,18.87,178.7
"2009-09-14 01:25:00",1238858,4.605,213.6,2.487,0.29,18.68,107.3338,18.05,19,58.38,0,110.6,13.29,18.87,175.6
"2009-09-14 01:25:30",1238859,4.055,214,1.161,0.114,18.85,107.344,18.08,19.01,58.39,0,110.6,13.29,18.89,176.0
"2009-09-14 01:26:00",1238860,4.599,216,2.475,0.138,18.96,107.3572,18.11,19.04,57.76,0,110.6,13.29,18.93,178.0
"2009-09-14 01:26:30",1238861,5.584,220.8,3.888,0.443,19.18,107.3643,18.13,19.04,54.55,0,110.6,13.29,18.94,182.8
"2009-09-14 01:27:00",1238862,6.042,220.7,4.184,0.399,18.93,107.3673,18.14,19.05,52.67,0,110.6,13.29,18.95,182.7
"2009-09-14 01:27:30",1238863,6.548,214.2,1.458,0.322,18.74,107.3673,18.14,19.07,56.44,0,110.6,13.29,18.95,176.2
"2009-09-14 01:28:00",1238864,6.931,205.6,5.702,0.152,18.11,107.3679,18.14,19.1,57.54,0,110.6,13.29,18.95,167.6
"2009-09-14 01:28:30",1238865,6.984,202.5,0.656,0.194,17.71,107.3811,18.17,19.13,57.75,0,110.6,13.3,18.99,164.5
"2009-09-14 01:29:00",1238866,6.933,201.8,0.56,0.107,17.81,107.3952,18.21,19.13,57.56,0,110.6,13.3,19.02,163.8
"2009-09-14 01:29:30",1238867,7.155,201.8,1.137,0.158,18.09,107.3995,18.22,19.13,57.58,0,110.6,13.3,19.04,163.8
"2009-09-14 01:30:00",1238868,7.34,203.2,2.012,0.121,18.4,107.4009,18.22,19.15,58.35,0,110.6,13.3,19.04,165.2
"2009-09-14 01:30:30",1238869,7.074,205.9,0.902,0.083,18.1,107.3997,18.22,19.15,57.94,0,110.6,13.3,19.04,167.9
"2009-09-14 01:31:00",1238870,7.015,207.2,1.208,0.128,18,107.3927,18.2,19.16,57.51,0,110.6,13.3,19.02,169.2
"2009-09-14 01:31:30",1238871,6.659,205.2,1.887,0.206,18.15,107.3761,18.16,19.15,57.17,0,110.6,13.3,18.97,167.2
"2009-09-14 01:32:00",1238872,6.762,203,1.09,0.13,18.27,107.3673,18.14,19.14,57,0,110.6,13.3,18.95,165.0
"2009-09-14 01:32:30",1238873,6.797,206.1,1.057,0.126,18.39,107.3673,18.14,19.14,56.8,0,110.6,13.3,18.95,168.1
"2009-09-14 01:33:00",1238874,6.71,202.9,0.943,0.084,18.31,107.3673,18.14,19.14,56.89,0,110.6,13.3,18.95,164.9
"2009-09-14 01:33:30",1238875,6.738,202.2,0.552,0.092,18.39,107.3673,18.14,19.12,57.14,0,110.6,13.3,18.95,164.2
"2009-09-14 01:34:00",1238876,6.544,208.7,3.277,0.143,18.28,107.3662,18.13,19.09,57.37,0,110.6,13.3,18.95,170.7
"2009-09-14 01:34:30",1238877,6.683,209.5,1.36,0.095,18.21,107.3567,18.11,19.1,57.12,0,110.6,13.3,18.92,171.5
"2009-09-14 01:35:00",1238878,6.342,208.7,0.901,0.124,18.34,107.3389,18.06,19.09,56.98,0,110.6,13.3,18.88,170.7
"2009-09-14 01:35:30",1238879,6.457,204.7,1.992,0.05,18.3,107.3335,18.05,19.09,56.76,0,110.6,13.3,18.87,166.7
"2009-09-14 01:36:00",1238880,6.519,204.4,1.525,0.073,18.35,107.3335,18.05,19.07,57.48,0,110.6,13.3,18.87,166.4
"2009-09-14 01:36:30",1238881,6.829,210,3.476,0.304,18.5,107.3335,18.05,19.06,56.28,0,110.6,13.3,18.87,172.0
"2009-09-14 01:37:00",1238882,6.436,208.5,3.68,0.265,18.35,107.3335,18.05,19.05,54.57,0,110.6,13.3,18.87,170.5
"2009-09-14 01:37:30",1238883,6.297,216.7,5.47,0.349,18.36,107.331,18.04,19.05,54.15,0,110.6,13.29,18.86,178.7
"2009-09-14 01:38:00",1238884,6.679,212.9,2.865,0.497,18.35,107.3195,18.01,19.02,53.62,0,110.6,13.29,18.83,174.9
"2009-09-14 01:38:30",1238885,5.317,215.3,9.37,0.321,18.41,107.302,17.97,19.01,53.57,0,110.6,13.29,18.78,177.3
"2009-09-14 01:39:00",1238886,5.365,223.1,5.595,0.341,18.32,107.2998,17.96,19.01,51.52,0,110.6,13.29,18.78,185.1
"2009-09-14 01:39:30",1238887,5.443,228.3,3.369,0.219,18.32,107.2998,17.96,18.99,50.86,0,110.6,13.29,18.78,190.3
"2009-09-14 01:40:00",1238888,5.778,230,1.401,0.113,18.41,107.2998,17.96,18.98,50.21,0,110.6,13.29,18.78,192.0
"2009-09-14 01:40:30",1238889,5.701,221.9,4.753,0.285,18.04,107.2998,17.96,18.96,51.12,0,110.6,13.29,18.78,183.9
"2009-09-14 01:41:00",1238890,5.36,227.9,2.798,0.334,18.31,107.2995,17.96,18.96,51.94,0,110.6,13.29,18.78,189.9
"2009-09-14 01:41:30",1238891,4.834,236.1,2.625,0.193,18.39,107.2992,17.96,18.96,50.32,0,110.6,13.29,18.78,198.1
"2009-09-14 01:42:00",1238892,4.683,232.1,1.912,0.162,18.48,107.293,17.95,18.96,49.65,0,110.6,13.29,18.76,194.1
"2009-09-14 01:42:30",1238893,5.013,226.2,1.934,0.232,18.45,107.291,17.94,18.94,47.01,0,110.6,13.29,18.76,188.2
"2009-09-14 01:43:00",1238894,5.058,225,1.137,0.201,18.53,107.291,17.94,18.93,45.71,0,110.6,13.3,18.76,187.0
"2009-09-14 01:43:30",1238895,4.895,228.4,1.252,0.19,18.25,107.2905,17.94,18.93,46.88,0,110.6,13.3,18.75,190.4
"2009-09-14 01:44:00",1238896,4.774,228.3,1.575,0.096,18.11,107.2905,17.94,18.93,47.15,0,110.6,13.3,18.75,190.3
"2009-09-14 01:44:30",1238897,4.628,226.7,2.06,0.245,18.29,107.2905,17.94,18.93,46.54,0,110.6,13.3,18.75,188.7
"2009-09-14 01:45:00",1238898,4.616,229.1,1.876,0.151,18.25,107.291,17.94,18.92,45.92,0,110.6,13.3,18.76,191.1
"2009-09-14 01:45:30",1238899,4.495,225.6,1.161,0.156,17.98,107.2919,17.94,18.93,46.78,0,110.6,13.3,18.76,187.6
"2009-09-14 01:46:00",1238900,4.341,223.3,1.38,0.143,18.19,107.2913,17.94,18.92,47.07,0,110.6,13.3,18.76,185.3
"2009-09-14 01:46:30",1238901,4.027,222.3,1.395,0.073,18.26,107.2933,17.95,18.93,46.97,0,110.6,13.3,18.76,184.3
"2009-09-14 01:47:00",1238902,3.944,216.9,2.819,0.134,18.07,107.295,17.95,18.93,47.52,0,110.6,13.3,18.77,178.9